Regional Weather Roundup
Issued by NWS

Home | Current Version | Previous Version | Text Only | Print | Product List | Glossary On
Versions: 1 2 3 4 5 6 7 8 9 10 11 12 13 14 15 16 17 18 19 20 21 22 23 24 25 26 27 28 29 30 31 32 33 34 35 36 37 38 39 40 41 42 43 44 45 46 47 48 49 50
000
ASUS43 KDMX 011607
RWRIA

WEATHER ROUNDUP FOR IOWA
NATIONAL WEATHER SERVICE DES MOINES IA
1100 AM CDT FRI AUG 01 2014

NOTE: "FAIR" INDICATES FEW OR NO CLOUDS BELOW 12,000 FEET WITH NO
SIGNIFICANT WEATHER AND/OR OBSTRUCTIONS TO VISIBILITY.

* - THESE STATIONS ARE NOT NWS STATIONS...THUS NOT UNDER NWS
QUALITY CONTROL.  THEY ALSO DO NOT REPORT WEATHER SUCH
AS PRECIPITATION OR FOG.

IAZ001>003-012>014-020>022-031>034-043>046-011700-
   NORTHWEST IOWA

CITY           SKY/WX    TMP DP  RH WIND       PRES   REMARKS
CARROLL *      SUNNY     75  61  60 CALM      30.11S
CHEROKEE *     SUNNY     75  64  69 CALM      30.11S
DENISON *      MOSUNNY   73  64  73 CALM      30.10R
LE MARS *      SUNNY     75  63  64 CALM      30.11S
ORANGE CITY *  SUNNY     75  61  60 W3        30.12R
SHELDON *      SUNNY     73  64  73 VRB3      30.11S
SIOUX CITY     SUNNY     75  63  66 CALM      30.11S
SPENCER        SUNNY     76  62  62 NW7       30.11S
STORM LAKE *   SUNNY     72  63  73 VRB3      30.13R
$$

IAZ055>058-069>071-079>083-090>094-011700-
   SOUTHWEST IOWA

CITY           SKY/WX    TMP DP  RH WIND       PRES   REMARKS
ATLANTIC *     SUNNY     73  64  73 CALM      30.10R
AUDUBON *      MOSUNNY   77  68  73 CALM      30.12S
CLARINDA *     PTSUNNY   72  66  83 NE5       30.11R
COUNCIL BLFS * PTSUNNY   72  68  88 VRB6      30.09R
CRESTON *      SUNNY     73  59  60 CALM      30.11S
HARLAN  *      SUNNY     73  64  73 CALM      30.14R
LAMONI         MOSUNNY   76  61  59 VRB5      30.10F
RED OAK *      PTSUNNY   75  64  69 VRB6      30.09S
SHENANDOAH *   PTSUNNY   73  64  73 E6        30.09R
$$

IAZ047>049-059>061-072>074-084-011700-
   CENTRAL IOWA

CITY           SKY/WX    TMP DP  RH WIND       PRES   REMARKS
AMES           SUNNY     75  61  61 VRB3      30.10S
ANKENY *       SUNNY     75  61  60 CALM      30.10S
CHARITON *     SUNNY     75  63  64 VRB5G12   30.10S
DES MOINES     MOSUNNY   78  61  55 CALM      30.09S HX  80
GRINNELL*      SUNNY     75  61  60 CALM      30.11S
KNOXVILLE *    SUNNY     75  59  57 NW5       30.09S
MARSHALLTOWN   SUNNY     75  60  59 W3        30.10S
PELLA *        SUNNY     79  63  57 CALM      30.11S HX  80
PERRY *          N/A     75  61  60 CALM      30.10F
$$

IAZ004>006-015-016-023>025-035-036-011700-
   NORTH CENTRAL IOWA

CITY           SKY/WX    TMP DP  RH WIND       PRES   REMARKS
ALGONA *       SUNNY     75  63  64 CALM      30.11R
CLARION *      SUNNY     75  59  57 VRB3      30.10S
ESTHERVILLE    SUNNY     74  63  68 NW6       30.11R
FORT DODGE *   SUNNY     73  61  64 NW5       30.12R
MASON CITY     SUNNY     77  64  64 VRB3      30.11S
FOREST CITY *  SUNNY     75  63  64 W3        30.11R
IOWA FALLS *     N/A     75  59  57 CALM      30.12R
$$

IAZ007>011-017>019-026>030-037>042-050>054-066-011700-
   NORTHEAST IOWA

CITY           SKY/WX    TMP DP  RH WIND       PRES   REMARKS
CEDAR RAPIDS   SUNNY     78  63  59 CALM      30.09R HX  80
CHARLES CITY * SUNNY     75  63  64 CALM      30.11S
CLINTON *      SUNNY     75  64  69 CALM      30.13S
DECORAH *      SUNNY     77  59  53 CALM      30.09S
DUBUQUE        SUNNY     76  62  62 CALM      30.10S
MONTICELLO *   SUNNY     77  63  61 CALM      30.09S
OELWEIN *      SUNNY     77  64  65 NW5       30.11S
WATERLOO       SUNNY     78  60  53 VRB6      30.09S
$$

IAZ064-065-067-068-078-011700-
   EAST CENTRAL IOWA

CITY           SKY/WX    TMP DP  RH WIND       PRES   REMARKS
DAVENPORT      SUNNY     77  63  61 W7        30.10S
IOWA CITY      SUNNY     76  65  68 VRB3      30.10S
MT. PLEASANT * SUNNY     79  63  57 CALM      30.10S HX  80
MUSCATINE *    PTSUNNY   77  63  61 S6        30.09S
QUAD CITIES    SUNNY     77  62  59 SW7       30.09S
$$

IAZ062-063-075>077-085>089-095>099-011700-
   SOUTHEAST IOWA

CITY           SKY/WX    TMP DP  RH WIND       PRES   REMARKS
BURLINGTON     SUNNY     76  65  68 SE6       30.09S
FAIRFIELD *    SUNNY     77  63  61 CALM      30.10R
FORT MADISON * SUNNY     79  66  65 S3        30.10S HX  81
KEOKUK *       MOSUNNY   75  64  69 E6        30.09S
OSKALOOSA *      N/A     77  64  65 N5        30.10R
CENTERVILLE *  SUNNY     75  64  69 W5        30.12S
OTTUMWA        SUNNY     77  63  61 NE6       30.09S
WASHINGTON *   MOSUNNY   77  66  69 NE5       30.10R
$$

ABBREVIATIONS USED IN REMARKS
   TC - TEMPERATURES IN CELSIUS
  WCI - WIND CHILL INDEX
   HX - HEAT INDEX
  VSB - VISIBILITY
$$



USA.gov is the U.S. government's official web portal to all federal, state and local government web resources and services.